Regional Weather Roundup
Issued by NWS

Home | Current Version | Previous Version | Graphics & Text | Print | Product List | Glossary On
Versions: 1 2 3 4 5 6 7 8 9 10 11 12 13 14 15 16 17 18 19 20 21 22 23 24 25 26 27 28 29 30 31 32 33 34 35 36 37 38 39 40 41 42 43 44 45 46 47 48 49 50
000
ASUS45 KCYS 292310
RWRWY

WYOMING REGIONAL WEATHER ROUNDUP
NATIONAL WEATHER SERVICE CHEYENNE WY
500 PM MDT SAT AUG 29 2015

NOTE:  "FAIR" INDICATES FEW OR NO CLOUDS BELOW 12,000 FEET
WITH NO SIGNIFICANT WEATHER AND/OR OBSTRUCTIONS TO VISIBILITY.

WYZ001-300000-
YELLOWSTONE NATIONAL PARK

CITY           SKY/WX    TMP DP  RH WIND       PRES   REMARKS
LK YELLOWSTONE   N/A     67  42  40 CALM      30.25F
W YELLOWSTONE  NOT AVBL

$$
WYZ002>013-054>058-071-098>099-300000-
NORTHERN WYOMING

CITY           SKY/WX    TMP DP  RH WIND       PRES   REMARKS
JACKSON        SUNNY     81  41  24 S12       30.13F
CODY           FAIR      88  39  18 NW5       29.99F
GREYBULL       FAIR      96  32  10 E6        29.87F HX  90
WORLAND        FAIR      96  27   8 S12       29.91F HX  90
SHERIDAN       FAIR     100  32   9 N6        29.88F HX  94
BUFFALO        FAIR      96  30   9 SW14      29.97F HX  90
GILLETTE       FAIR      95  34  11 S14G23    29.95F HX  90
HULETT         FAIR      93  41  16 S12       29.98F
NEWCASTLE      FAIR      91  30  11 SE8       30.00F

$$
WYZ014>020-022>026-101>103-300000-
CENTRAL WYOMING

CITY           SKY/WX    TMP DP  RH WIND       PRES   REMARKS
BIG PINEY      FAIR      82  38  20 W20       30.20F
PINEDALE       FAIR      81  32  17 SW8G17    30.20F
DUBOIS         FAIR      77  34  20 W8G16     30.19F
LANDER         FAIR      91  33  12 SW15      30.02F
RIVERTON       FAIR      91  32  12 SE6       30.04F
CASPER         FAIR      91  26   9 SW13G25   30.07F
DOUGLAS        FAIR      92  29  10 E10       30.06F

$$
WYZ021-027>030-104>119-300000-
SOUTHERN WYOMING

CITY           SKY/WX    TMP DP  RH WIND       PRES   REMARKS
EVANSTON       FAIR      84  34  16 SW16G28   30.21F
KEMMERER       FAIR      81  32  17 W15G22    30.22F
FORT BRIDGER   MOCLDY    84  37  18 S3        30.24S
ROCK SPRINGS   FAIR      85  28  12 SE6       30.17F
DIXON          FAIR      87  25  10 SW8       30.23F
RAWLINS        FAIR      85  27  12 S9G18     30.22F
SARATOGA       FAIR      81  30  16 CALM      30.25F
LARAMIE        FAIR      82  24  12 S12       30.25F
CHEYENNE       FAIR      84  36  18 S12       30.19F
TORRINGTON     FAIR      92  39  15 S17       30.01F
PINE BLUFFS    FAIR      88  32  13 SE10G20   30.13F

$$


USA.gov is the U.S. government's official web portal to all federal, state and local government web resources and services.